Location: *
(32.8667°N, 13.1833°E)
Time: 03:31:52
(UTC+00:00)

SJ-6B - Pass Details

Date: 18 July 2019
Orbit: 511 x 581 km, 97.7° (Epoch: 21 August)

Event Time Altitude Azimuth Distance (km) Brightness Sun altitude
Exits shadow 19:21:49 - 186° (S) 2,506 5.9 -12.8°
Reaches altitude 10° 19:23:45 10° 195° (SSW) 1,738 5.2 -13.2°
Maximum altitude 19:27:10 34° 261° (W) 862 4.2 -13.7°
Drops below altitude 10° 19:30:36 10° 328° (NNW) 1,736 6.5 -14.3°
Sets 19:32:50 0° 338° (NNW) 2,625 7.4 -14.7°
